DW6399 Weather Reports


Display with metric or nautical units.
time (UTC)temp
F
wind
direction
speed
MPH
gust
MPH
rain 1hr
in
rain 24hr
in
rain mn
in
humidity
%
barometer
mb
20260906030004 43 325 12.0 22.0 0.00 0.12 0.00 82 1000.0
20260906025425 43 324 12.0 19.0 0.00 0.12 0.00 82 1000.0
20260906024504 43 327 11.0 18.0 0.00 0.12 0.00 83 999.9
20260906023604 43 324 12.0 18.0 0.00 0.12 0.00 83 999.9
20260906022704 43 324 11.0 19.0 0.00 0.12 0.00 83 999.9
20260906021804 43 327 11.0 19.0 0.00 0.12 0.00 83 999.8
20260906020904 43 329 10.0 17.0 0.00 0.12 0.00 84 999.7
20260906020025 43 326 8.0 12.0 0.00 0.12 0.00 85 999.6
20260906015404 43 324 8.0 13.0 0.00 0.12 0.00 85 999.5
20260906014504 43 325 9.0 14.0 0.00 0.12 0.00 86 999.5
20260906013604 43 326 7.0 12.0 0.00 0.12 0.00 86 999.4
20260906012704 44 328 10.0 18.0 0.00 0.12 0.00 85 999.4
20260906011825 44 332 8.0 15.0 0.00 0.12 0.00 86 999.3
20260906010904 44 326 8.0 14.0 0.00 0.12 0.00 86 999.3
20260906010025 44 323 9.0 14.0 0.00 0.12 0.00 86 999.2
20260906005404 44 324 8.0 14.0 0.00 0.12 0.00 86 999.2
20260906004504 43 318 9.0 13.0 0.00 0.12 0.00 86 999.1
20260906003604 43 318 8.0 13.0 0.00 0.12 0.00 86 999.0
20260906002703 43 314 7.0 13.0 0.00 0.12 0.00 87 999.0
20260906001825 43 314 7.0 11.0 0.00 0.12 0.00 88 999.0
20260906000904 42 317 5.0 9.0 0.00 0.12 0.00 88 998.9
20260906000004 42 320 5.0 9.0 0.00 0.12 0.00 88 998.8
20260905235424 42 320 6.0 12.0 0.00 0.12 0.00 88 998.8
20260905234504 42 318 7.0 12.0 0.00 0.12 0.00 88 998.8
20260905233604 42 319 7.0 12.0 0.00 0.12 0.00 87 998.7
20260905232704 42 316 6.0 12.0 0.00 0.12 0.00 87 998.8
20260905231804 42 311 5.0 9.0 0.00 0.12 0.00 86 998.8
20260905230925 43 313 5.0 8.0 0.00 0.12 0.00 86 998.8
20260905230004 43 314 4.0 9.0 0.00 0.12 0.00 85 998.7
20260905225404 43 319 5.0 11.0 0.00 0.12 0.00 85 998.7
20260905224504 43 323 6.0 12.0 0.00 0.12 0.00 84 998.8
20260905223603 44 326 8.0 14.0 0.00 0.12 0.00 84 998.8
20260905222704 44 326 8.0 13.0 0.00 0.12 0.00 83 998.7
20260905221803 44 328 8.0 12.0 0.00 0.12 0.00 82 998.7
20260905220904 44 329 7.0 12.0 0.00 0.12 0.00 82 998.5
20260905220025 44 328 6.0 11.0 0.00 0.12 0.00 83 998.5
20260905215425 44 327 6.0 13.0 0.00 0.12 0.00 83 998.5
20260905214504 44 329 8.0 13.0 0.00 0.12 0.00 83 998.5
20260905213604 44 329 9.0 16.0 0.00 0.12 0.00 83 998.5
20260905212704 44 334 8.0 15.0 0.00 0.12 0.00 84 998.5
20260905211804 45 330 8.0 16.0 0.00 0.12 0.00 84 998.5
20260905210924 45 333 7.0 13.0 0.00 0.12 0.00 85 998.4
20260905210026 46 327 8.0 15.0 0.00 0.12 0.00 85 998.3
20260905205403 46 330 8.0 15.0 0.00 0.12 0.12 85 998.3
20260905204524 46 331 9.0 16.0 0.00 0.12 0.12 86 998.3
20260905203625 46 327 8.0 12.0 0.00 0.12 0.12 87 998.2
20260905202704 46 332 8.0 14.0 0.00 0.12 0.12 87 998.3
20260905201803 46 328 9.0 14.0 0.00 0.12 0.12 88 998.2
20260905200924 46 329 10.0 15.0 0.00 0.12 0.12 88 998.1
20260905200025 46 326 9.0 16.0 0.00 0.12 0.12 88 998.1
20260905195425 46 330 8.0 14.0 0.00 0.12 0.12 88 998.0
20260905194504 46 333 8.0 14.0 0.00 0.12 0.12 88 998.0
20260905193603 46 333 6.0 12.0 0.00 0.12 0.12 88 998.0
20260905192704 46 333 7.0 15.0 0.00 0.12 0.12 88 997.9
20260905191803 46 335 8.0 16.0 0.00 0.12 0.12 88 997.9
20260905190904 46 329 11.0 17.0 0.00 0.12 0.12 88 997.9
20260905190004 46 330 10.0 16.0 0.00 0.12 0.12 87 997.9
20260905185403 47 329 8.0 14.0 0.00 0.12 0.12 87 997.9
20260905184504 47 333 9.0 15.0 0.00 0.12 0.12 86 997.9
20260905183625 47 333 8.0 13.0 0.00 0.12 0.12 86 997.8
20260905182703 47 335 9.0 14.0 0.00 0.12 0.12 86 997.6
20260905181825 47 335 8.0 15.0 0.00 0.12 0.12 86 997.5
20260905180925 47 334 8.0 18.0 0.00 0.12 0.12 86 997.5
20260905180004 47 334 8.0 18.0 0.00 0.12 0.12 86 997.5
20260905175404 47 332 9.0 20.0 0.00 0.12 0.12 87 997.4
20260905174503 48 330 9.0 17.0 0.00 0.12 0.12 87 997.3
20260905173603 48 333 9.0 17.0 0.00 0.12 0.12 87 997.2
20260905172703 48 331 10.0 15.0 0.00 0.12 0.12 87 997.1
20260905171803 48 328 9.0 17.0 0.00 0.12 0.12 87 996.9
20260905170904 48 335 7.0 12.0 0.00 0.12 0.12 86 996.8
20260905170004 48 331 8.0 12.0 0.00 0.12 0.12 86 996.6
20260905165403 48 329 9.0 16.0 0.00 0.12 0.12 87 996.6
20260905164503 48 331 7.0 14.0 0.00 0.12 0.12 87 996.5
20260905163604 49 334 5.0 11.0 0.00 0.12 0.12 86 996.4
20260905162704 49 339 6.0 12.0 0.00 0.12 0.12 86 996.5
20260905161824 49 336 9.0 17.0 0.00 0.12 0.12 85 996.3
20260905160904 49 336 8.0 16.0 0.00 0.12 0.12 86 996.3
20260905160004 50 332 9.0 16.0 0.00 0.12 0.12 86 996.1
20260905155403 50 333 7.0 15.0 0.00 0.12 0.12 87 996.0
20260905154504 50 328 9.0 17.0 0.00 0.12 0.12 87 995.9
20260905153604 50 326 10.0 17.0 0.00 0.12 0.12 86 995.8
20260905152704 50 336 6.0 14.0 0.00 0.12 0.12 86 995.7
20260905151804 50 335 5.0 10.0 0.00 0.12 0.12 87 995.6
20260905150903 50 331 8.0 15.0 0.00 0.12 0.12 87 995.5
20260905150025 50 330 10.0 14.0 0.00 0.12 0.12 88 995.4
20260905145403 50 330 9.0 14.0 0.00 0.12 0.12 88 995.4
20260905144504 50 330 10.0 14.0 0.00 0.12 0.12 88 995.3
20260905143603 50 329 10.0 17.0 0.00 0.12 0.12 88 995.2
20260905142703 50 329 11.0 19.0 0.00 0.12 0.12 88 995.1
20260905141804 51 325 10.0 15.0 0.00 0.12 0.12 88 995.0
20260905140904 51 326 8.0 15.0 0.00 0.12 0.12 90 994.8
20260905140004 50 331 8.0 18.0 0.00 0.12 0.12 90 994.9
20260905135404 50 332 10.0 18.0 0.00 0.12 0.12 90 994.8
20260905134504 50 329 11.0 18.0 0.00 0.12 0.12 89 994.8
20260905133603 51 330 8.0 17.0 0.00 0.12 0.12 89 994.7
20260905132703 51 328 10.0 16.0 0.00 0.12 0.12 89 994.6
20260905131825 51 327 11.0 17.0 0.00 0.12 0.12 89 994.6
20260905130904 52 326 10.0 15.0 0.00 0.12 0.12 88 994.5
20260905130025 52 330 9.0 18.0 0.00 0.12 0.12 87 994.4
20260905125403 52 322 10.0 16.0 0.00 0.12 0.12 87 994.4
20260905124503 53 319 12.0 19.0 0.00 0.12 0.12 86 994.3
20260905123603 53 316 10.0 18.0 0.00 0.12 0.12 87 994.2
20260905122703 52 324 11.0 18.0 0.00 0.12 0.12 88 994.1
20260905121824 52 322 12.0 20.0 0.00 0.12 0.12 88 994.1
20260905120903 53 320 11.0 20.0 0.00 0.12 0.12 88 993.9
20260905120004 53 320 11.0 20.0 0.00 0.12 0.12 89 993.8
20260905115404 53 322 11.0 22.0 0.00 0.12 0.12 88 993.8
20260905114503 54 318 11.0 18.0 0.00 0.12 0.12 89 993.6
20260905113604 53 329 11.0 18.0 0.00 0.12 0.12 89 993.6
20260905112703 53 328 10.0 15.0 0.00 0.12 0.12 90 993.6
20260905111803 54 333 8.0 15.0 0.00 0.12 0.12 91 993.5
20260905110903 54 338 8.0 15.0 0.00 0.12 0.12 91 993.4
20260905110003 54 340 5.0 13.0 0.00 0.12 0.12 93 993.3
20260905105403 53 335 6.0 13.0 0.00 0.12 0.12 93 993.3
20260905104503 53 332 6.0 13.0 0.01 0.12 0.12 95 993.2
20260905103603 52 329 4.0 11.0 0.02 0.12 0.12 95 993.1
20260905102703 52 331 5.0 9.0 0.02 0.12 0.12 94 993.0
20260905101824 52 336 3.0 8.0 0.02 0.12 0.12 95 993.0
20260905100903 52 338 3.0 8.0 0.02 0.12 0.12 95 992.9
20260905100003 51 335 4.0 10.0 0.02 0.12 0.12 95 992.9
20260905095403 51 332 6.0 12.0 0.02 0.12 0.12 95 992.9
20260905094524 52 328 7.0 13.0 0.01 0.11 0.11 96 992.8
20260905093603 52 325 3.0 5.0 0.00 0.10 0.10 96 992.6
20260905092703 51 345 4.0 10.0 0.00 0.10 0.10 96 992.7
20260905091803 51 330 6.0 10.0 0.00 0.10 0.10 97 992.6
20260905090903 51 343 4.0 9.0 0.00 0.10 0.10 96 992.6
20260905090003 51 335 3.0 9.0 0.00 0.10 0.10 96 992.6
20260905085404 51 333 3.0 5.0 0.00 0.10 0.10 96 992.5
20260905084503 50 353 2.0 6.0 0.00 0.10 0.10 96 992.4
20260905083603 50 337 4.0 11.0 0.00 0.10 0.10 96 992.4
20260905082703 50 338 5.0 11.0 0.00 0.10 0.10 96 992.3
20260905081804 50 331 4.0 7.0 0.00 0.10 0.10 96 992.3
20260905080903 50 328 5.0 9.0 0.01 0.10 0.10 96 992.3
20260905080025 50 317 3.0 5.0 0.02 0.10 0.10 96 992.3
20260905075403 50 322 3.0 5.0 0.02 0.10 0.10 96 992.3
20260905074503 49 327 3.0 5.0 0.03 0.10 0.10 96 992.3
20260905073603 49 328 4.0 6.0 0.03 0.10 0.10 96 992.2
20260905072703 48 332 3.0 5.0 0.04 0.10 0.10 96 992.2
20260905071824 48 353 2.0 4.0 0.06 0.10 0.10 96 992.2
20260905070903 48 344 2.0 4.0 0.07 0.09 0.09 96 992.1
20260905070004 48 331 2.0 4.0 0.07 0.08 0.09 96 992.1
20260905065403 48 330 2.0 4.0 0.07 0.08 0.08 96 992.1
20260905064503 47 330 2.0 5.0 0.06 0.07 0.07 96 992.1
20260905063624 48 340 2.0 4.0 0.06 0.07 0.07 96 992.1
20260905062724 47 340 2.0 5.0 0.05 0.06 0.06 96 992.0
20260905061803 47 334 4.0 6.0 0.04 0.04 0.04 96 991.9
20260905060903 47 325 5.0 8.0 0.02 0.02 0.02 96 991.8
20260905060004 48 329 4.0 6.0 0.01 0.01 0.01 96 991.8
20260905055403 48 332 3.0 6.0 0.01 0.01 0.01 96 991.8
20260905054503 47 338 1.0 4.0 0.01 0.01 0.01 96 991.8
20260905053603 46 321 2.0 4.0 0.01 0.01 0.01 96 991.8
20260905052703 46 321 3.0 5.0 0.01 0.01 0.01 96 991.8
20260905051803 46 321 3.0 5.0 0.00 0.00 0.00 96 991.8
20260905050903 46 321 2.0 4.0 0.00 0.00 0.00 96 991.8
20260905050004 46 321 2.0 4.0 0.00 0.00 0.00 96 991.7
20260905045403 45 321 2.0 3.0 0.00 0.00 0.00 96 991.7
20260905044503 45 321 1.0 3.0 0.00 0.00 0.00 96 991.7
20260905043603 44 321 1.0 3.0 0.00 0.00 0.00 96 991.7
20260905042703 43 321 1.0 2.0 0.00 0.00 0.00 96 991.8
20260905041803 43 0 0.0 0.0 0.00 0.00 0.00 96 991.8
20260905040903 43 0 0.0 0.0 0.00 0.00 0.00 96 991.8
20260905040003 43 321 0.0 1.0 0.00 0.00 0.00 96 991.8
20260905035403 43 321 0.0 1.0 0.00 0.00 0.00 96 991.8
20260905034524 42 0 0.0 0.0 0.00 0.00 0.00 96 991.8
20260905033603 42 321 0.0 2.0 0.00 0.00 0.00 96 991.8
20260905032703 42 321 0.0 1.0 0.00 0.00 0.00 96 991.8
20260905031803 42 321 0.0 1.0 0.00 0.00 0.00 96 991.8
20260905030903 42 0 0.0 0.0 0.00 0.00 0.00 96 991.7